HVK374 KIND-CYXU

Flight info

Callsign HVK374
Flight time 1h 0m
Altitude 31000
Route MAREO5 BDOCK
Aircraft A400/H-SDE2E3FGHIJ4J5M1RWXY/LB1D1

Departure

Time 2026-05-05 23:24
Airport Indianapolis International Airport (KIND)

Arrival

Time 2026-05-06 00:25
Airport London International Airport (CYXU)
Time Latitude Longitude Altitude Speed Heading
2026-05-05 22:46 39.71119 -86.28720 801 ft 0 kts 315°
2026-05-05 23:15 39.71121 -86.28723 801 ft 4 kts 315°
2026-05-05 23:15 39.71107 -86.28705 801 ft 3 kts 308°
2026-05-05 23:15 39.71089 -86.28677 801 ft 6 kts 306°
2026-05-05 23:15 39.71086 -86.28630 801 ft 6 kts 234°
2026-05-05 23:16 39.71087 -86.28627 801 ft 0 kts 234°
2026-05-05 23:16 39.71045 -86.28681 801 ft 14 kts 220°
2026-05-05 23:17 39.70944 -86.28806 801 ft 25 kts 224°
2026-05-05 23:17 39.70853 -86.28947 799 ft 16 kts 253°
2026-05-05 23:17 39.70878 -86.29038 799 ft 11 kts 309°
2026-05-05 23:17 39.70895 -86.29107 799 ft 8 kts 260°
2026-05-05 23:18 39.70850 -86.29191 798 ft 16 kts 225°
2026-05-05 23:18 39.70749 -86.29320 800 ft 23 kts 224°
2026-05-05 23:18 39.70631 -86.29454 802 ft 21 kts 211°
2026-05-05 23:18 39.70503 -86.29539 804 ft 19 kts 216°
2026-05-05 23:19 39.70406 -86.29656 803 ft 20 kts 224°
2026-05-05 23:19 39.70305 -86.29783 803 ft 20 kts 225°
2026-05-05 23:19 39.70202 -86.29916 800 ft 22 kts 224°
2026-05-05 23:19 39.70099 -86.30045 800 ft 13 kts 224°
2026-05-05 23:20 39.70040 -86.30119 800 ft 10 kts 224°
2026-05-05 23:20 39.70023 -86.30141 800 ft 2 kts 224°
2026-05-05 23:20 39.70002 -86.30167 800 ft 0 kts 224°
2026-05-05 23:22 39.70001 -86.30169 800 ft 2 kts 225°
2026-05-05 23:23 39.69993 -86.30201 801 ft 3 kts 274°
2026-05-05 23:23 39.70024 -86.30266 801 ft 9 kts 314°
2026-05-05 23:23 39.70079 -86.30331 800 ft 6 kts 338°
2026-05-05 23:23 39.70128 -86.30310 798 ft 8 kts 38°
2026-05-05 23:24 39.70211 -86.30214 798 ft 49 kts 44°
2026-05-05 23:24 39.70780 -86.29487 812 ft 170 kts 45°
2026-05-05 23:24 39.71749 -86.28235 1145 ft 217 kts 43°
2026-05-05 23:24 39.72950 -86.26819 1580 ft 249 kts 40°
2026-05-05 23:25 39.74242 -86.25223 2603 ft 256 kts 45°
2026-05-05 23:25 39.75474 -86.23557 3828 ft 250 kts 46°
2026-05-05 23:25 39.76601 -86.22033 4612 ft 212 kts 45°
2026-05-05 23:25 39.77524 -86.20798 5028 ft 174 kts 45°
2026-05-05 23:26 39.78304 -86.19761 5260 ft 156 kts 45°
2026-05-05 23:26 39.79080 -86.18739 5921 ft 163 kts 45°
2026-05-05 23:26 39.79739 -86.17503 7308 ft 168 kts 69°
2026-05-05 23:26 39.79791 -86.16009 8879 ft 170 kts 116°
2026-05-05 23:27 39.78898 -86.15029 10249 ft 182 kts 151°
2026-05-05 23:27 39.77976 -86.13506 10474 ft 257 kts 107°
2026-05-05 23:27 39.78018 -86.11021 10781 ft 300 kts 72°
2026-05-05 23:27 39.79028 -86.08565 11656 ft 312 kts 59°
2026-05-05 23:28 39.79984 -86.06047 12488 ft 300 kts 67°
2026-05-05 23:28 39.80606 -86.03642 12973 ft 266 kts 77°
2026-05-05 23:28 39.80956 -86.01376 13117 ft 247 kts 79°
2026-05-05 23:28 39.81235 -85.99212 13116 ft 238 kts 81°
2026-05-05 23:29 39.81475 -85.97115 13110 ft 230 kts 82°
2026-05-05 23:29 39.81693 -85.95072 13110 ft 224 kts 82°
2026-05-05 23:29 39.81894 -85.93101 13107 ft 214 kts 82°
2026-05-05 23:29 39.82077 -85.91263 13106 ft 202 kts 83°
2026-05-05 23:30 39.82250 -85.89496 13104 ft 191 kts 83°
2026-05-05 23:30 39.82361 -85.88359 13102 ft 184 kts 83°
2026-05-05 23:30 39.82565 -85.86242 13096 ft 170 kts 83°
2026-05-05 23:30 39.82708 -85.84758 13089 ft 160 kts 83°
2026-05-05 23:31 39.82841 -85.83364 13071 ft 150 kts 83°
2026-05-05 23:31 39.82979 -85.81923 13294 ft 177 kts 83°
2026-05-05 23:31 39.83154 -85.80087 13156 ft 230 kts 83°
2026-05-05 23:31 39.83371 -85.77818 13083 ft 281 kts 83°
2026-05-05 23:32 39.83623 -85.75159 13088 ft 306 kts 83°
2026-05-05 23:32 39.83888 -85.72364 13105 ft 314 kts 83°
2026-05-05 23:32 39.84157 -85.69522 13108 ft 316 kts 83°
2026-05-05 23:32 39.84425 -85.66669 13109 ft 317 kts 83°
2026-05-05 23:33 39.84689 -85.63861 13109 ft 317 kts 83°
2026-05-05 23:33 39.84957 -85.60998 13109 ft 317 kts 83°
2026-05-05 23:33 39.85224 -85.58143 13109 ft 317 kts 83°
2026-05-05 23:33 39.85491 -85.55275 13109 ft 317 kts 83°
2026-05-05 23:34 39.85753 -85.52457 13109 ft 317 kts 83°
2026-05-05 23:34 39.86017 -85.49603 13109 ft 317 kts 83°
2026-05-05 23:34 39.86280 -85.46756 13109 ft 317 kts 83°
2026-05-05 23:34 39.86543 -85.43897 13110 ft 317 kts 83°
2026-05-05 23:35 39.86806 -85.41038 13109 ft 317 kts 83°
2026-05-05 23:35 39.87067 -85.38187 13109 ft 317 kts 83°
2026-05-05 23:35 39.87328 -85.35334 13109 ft 317 kts 83°
2026-05-05 23:35 39.87588 -85.32475 13109 ft 317 kts 83°
2026-05-05 23:36 39.87849 -85.29610 13109 ft 317 kts 83°
2026-05-05 23:36 39.88108 -85.26756 13110 ft 318 kts 83°
2026-05-05 23:36 39.88340 -85.23925 13109 ft 318 kts 84°
2026-05-05 23:36 39.88528 -85.21060 13110 ft 318 kts 85°
2026-05-05 23:37 39.88690 -85.18186 13109 ft 318 kts 86°
2026-05-05 23:37 39.88839 -85.15318 13109 ft 317 kts 86°
2026-05-05 23:37 39.88984 -85.12461 13110 ft 305 kts 86°
2026-05-05 23:37 39.89119 -85.09843 13121 ft 279 kts 86°
2026-05-05 23:38 39.89252 -85.07290 13112 ft 288 kts 86°
2026-05-05 23:38 39.89393 -85.04626 13103 ft 306 kts 86°
2026-05-05 23:38 39.89543 -85.01808 13105 ft 314 kts 86°
2026-05-05 23:38 39.89697 -84.98952 13108 ft 317 kts 86°
2026-05-05 23:39 39.89798 -84.97058 13109 ft 317 kts 86°
2026-05-05 23:39 39.90003 -84.93226 13285 ft 324 kts 86°
2026-05-05 23:39 39.90108 -84.91250 13760 ft 333 kts 86°
2026-05-05 23:39 39.90267 -84.88250 14965 ft 330 kts 86°
2026-05-05 23:40 39.90424 -84.85268 16199 ft 330 kts 86°
2026-05-05 23:40 39.90581 -84.82268 17150 ft 333 kts 86°
2026-05-05 23:40 39.90739 -84.79237 17953 ft 336 kts 86°
2026-05-05 23:40 39.90897 -84.76174 18758 ft 340 kts 86°
2026-05-05 23:41 39.91056 -84.73090 19558 ft 344 kts 86°
2026-05-05 23:41 39.91216 -84.69959 20361 ft 348 kts 86°
2026-05-05 23:41 39.91376 -84.66832 21154 ft 352 kts 86°
2026-05-05 23:41 39.91539 -84.63611 21958 ft 357 kts 86°
2026-05-05 23:42 39.91703 -84.60368 22769 ft 361 kts 86°
2026-05-05 23:42 39.91868 -84.57074 23563 ft 365 kts 86°
2026-05-05 23:42 39.92033 -84.53755 24367 ft 370 kts 86°
2026-05-05 23:42 39.92198 -84.50428 25162 ft 374 kts 86°
2026-05-05 23:43 39.92366 -84.47027 25960 ft 376 kts 86°
2026-05-05 23:43 39.92533 -84.43615 26767 ft 377 kts 86°
2026-05-05 23:43 39.92699 -84.40193 27572 ft 378 kts 86°
2026-05-05 23:43 39.92863 -84.36810 28367 ft 377 kts 86°
2026-05-05 23:44 39.93028 -84.33389 29171 ft 376 kts 86°
2026-05-05 23:44 39.93190 -84.29985 29976 ft 375 kts 86°
2026-05-05 23:44 39.93398 -84.26589 30627 ft 378 kts 81°
2026-05-05 23:44 39.94298 -84.23345 30953 ft 388 kts 58°
2026-05-05 23:45 39.96060 -84.20635 31096 ft 399 kts 42°
2026-05-05 23:45 39.98223 -84.18298 31003 ft 405 kts 38°
2026-05-05 23:45 40.02695 -84.13793 30998 ft 407 kts 38°
2026-05-05 23:46 40.07163 -84.09227 30997 ft 408 kts 38°
2026-05-05 23:46 40.11598 -84.04645 31000 ft 408 kts 38°
2026-05-05 23:47 40.16024 -84.00051 31000 ft 408 kts 38°
2026-05-05 23:47 40.20484 -83.95411 30995 ft 408 kts 38°
2026-05-05 23:48 40.24936 -83.90769 30999 ft 408 kts 38°
2026-05-05 23:48 40.29430 -83.86076 30995 ft 417 kts 38°
2026-05-05 23:49 40.33949 -83.81347 30997 ft 418 kts 38°
2026-05-05 23:49 40.38487 -83.76590 31002 ft 418 kts 38°
2026-05-05 23:50 40.43042 -83.71806 30997 ft 419 kts 38°
2026-05-05 23:50 40.47595 -83.67016 30996 ft 419 kts 38°
2026-05-05 23:51 40.52124 -83.62244 30999 ft 419 kts 38°
2026-05-05 23:51 40.56681 -83.57433 30997 ft 418 kts 38°
2026-05-05 23:52 40.61223 -83.52629 31001 ft 418 kts 38°
2026-05-05 23:52 40.65738 -83.47845 31001 ft 418 kts 38°
2026-05-05 23:53 40.70275 -83.43029 30998 ft 418 kts 39°
2026-05-05 23:53 40.74782 -83.38236 31002 ft 418 kts 39°
2026-05-05 23:54 40.79319 -83.33403 31002 ft 418 kts 39°
2026-05-05 23:54 40.83841 -83.28577 31003 ft 418 kts 39°
2026-05-05 23:55 40.88367 -83.23738 31000 ft 418 kts 39°
2026-05-05 23:55 40.92854 -83.18931 30998 ft 418 kts 39°
2026-05-05 23:56 40.97389 -83.14065 30997 ft 418 kts 39°
2026-05-05 23:56 41.01875 -83.09243 30996 ft 418 kts 39°
2026-05-05 23:57 41.06398 -83.04372 30999 ft 418 kts 39°
2026-05-05 23:57 41.10918 -82.99495 31000 ft 418 kts 39°
2026-05-05 23:58 41.15407 -82.94643 31002 ft 418 kts 39°
2026-05-05 23:58 41.19919 -82.89757 31003 ft 418 kts 39°
2026-05-05 23:59 41.24433 -82.84860 31002 ft 418 kts 39°
2026-05-05 23:59 41.28915 -82.79989 31002 ft 418 kts 39°
2026-05-06 00:00 41.33427 -82.75076 31000 ft 418 kts 39°
2026-05-06 00:00 41.37902 -82.70194 31002 ft 418 kts 39°
2026-05-06 00:01 41.42402 -82.65276 31001 ft 418 kts 39°
2026-05-06 00:01 41.46842 -82.60414 31005 ft 406 kts 39°
2026-05-06 00:02 41.51154 -82.55685 31003 ft 397 kts 39°
2026-05-06 00:02 41.55416 -82.51001 30998 ft 396 kts 39°
2026-05-06 00:03 41.59643 -82.46348 30910 ft 396 kts 39°
2026-05-06 00:03 41.61769 -82.44005 30664 ft 396 kts 39°
2026-05-06 00:03 41.63896 -82.41658 30416 ft 396 kts 39°
2026-05-06 00:04 41.66028 -82.39304 30159 ft 397 kts 39°
2026-05-06 00:04 41.68158 -82.36951 29929 ft 396 kts 39°
2026-05-06 00:04 41.70270 -82.34614 29691 ft 393 kts 39°
2026-05-06 00:04 41.72378 -82.32280 29434 ft 393 kts 39°
2026-05-06 00:05 41.76583 -82.27619 28933 ft 391 kts 39°
2026-05-06 00:05 41.78648 -82.25327 28686 ft 389 kts 39°
2026-05-06 00:05 41.80727 -82.23018 28441 ft 388 kts 39°
2026-05-06 00:06 41.82803 -82.20709 28187 ft 386 kts 39°
2026-05-06 00:06 41.84866 -82.18413 27947 ft 384 kts 39°
2026-05-06 00:06 41.86922 -82.16122 27687 ft 383 kts 39°
2026-05-06 00:06 41.88968 -82.13841 27437 ft 381 kts 39°
2026-05-06 00:07 41.91006 -82.11567 27273 ft 380 kts 39°
2026-05-06 00:07 41.93044 -82.09291 27149 ft 380 kts 39°
2026-05-06 00:07 41.95076 -82.07020 27024 ft 379 kts 39°
2026-05-06 00:07 41.97080 -82.04779 26900 ft 379 kts 39°
2026-05-06 00:08 41.99112 -82.02503 26775 ft 378 kts 39°
2026-05-06 00:08 42.01136 -82.00235 26650 ft 377 kts 39°
2026-05-06 00:08 42.03129 -81.98001 26530 ft 376 kts 39°
2026-05-06 00:08 42.05145 -81.95738 26398 ft 376 kts 39°
2026-05-06 00:09 42.07152 -81.93483 26276 ft 375 kts 39°
2026-05-06 00:09 42.09153 -81.91233 26151 ft 374 kts 39°
2026-05-06 00:09 42.11149 -81.88986 26006 ft 374 kts 39°
2026-05-06 00:09 42.13147 -81.86736 25619 ft 373 kts 39°
2026-05-06 00:10 42.15104 -81.84530 25157 ft 370 kts 39°
2026-05-06 00:10 42.17077 -81.82304 24677 ft 368 kts 39°
2026-05-06 00:10 42.19027 -81.80103 24204 ft 365 kts 40°
2026-05-06 00:10 42.20973 -81.77903 23730 ft 362 kts 40°
2026-05-06 00:11 42.22902 -81.75721 23182 ft 359 kts 40°
2026-05-06 00:11 42.24793 -81.73581 22411 ft 359 kts 40°
2026-05-06 00:11 42.26724 -81.71393 21462 ft 363 kts 40°
2026-05-06 00:11 42.28661 -81.69197 20643 ft 362 kts 40°
2026-05-06 00:12 42.30571 -81.67029 20045 ft 355 kts 40°
2026-05-06 00:12 42.32448 -81.64898 19406 ft 349 kts 40°
2026-05-06 00:12 42.34273 -81.62823 18791 ft 344 kts 40°
2026-05-06 00:12 42.36089 -81.60757 18168 ft 339 kts 40°
2026-05-06 00:13 42.37884 -81.58714 17542 ft 335 kts 40°
2026-05-06 00:13 42.39660 -81.56690 16917 ft 331 kts 40°
2026-05-06 00:13 42.41411 -81.54694 16304 ft 327 kts 40°
2026-05-06 00:13 42.43122 -81.52741 15725 ft 323 kts 40°
2026-05-06 00:14 42.44831 -81.50790 15154 ft 318 kts 40°
2026-05-06 00:14 42.46517 -81.48864 14582 ft 315 kts 40°
2026-05-06 00:14 42.48183 -81.46959 14013 ft 311 kts 40°
2026-05-06 00:14 42.49816 -81.45090 13431 ft 309 kts 40°
2026-05-06 00:15 42.51452 -81.43216 12860 ft 306 kts 40°
2026-05-06 00:15 42.53075 -81.41357 12287 ft 303 kts 40°
2026-05-06 00:15 42.54680 -81.39516 11695 ft 301 kts 40°
2026-05-06 00:15 42.56281 -81.37679 11139 ft 298 kts 40°
2026-05-06 00:16 42.57839 -81.35890 10561 ft 295 kts 40°
2026-05-06 00:16 42.59406 -81.34089 10024 ft 292 kts 40°
2026-05-06 00:16 42.60949 -81.32314 9683 ft 291 kts 40°
2026-05-06 00:16 42.62501 -81.30529 9032 ft 292 kts 40°
2026-05-06 00:17 42.64050 -81.28745 8132 ft 298 kts 40°
2026-05-06 00:17 42.65649 -81.26904 7222 ft 303 kts 40°
2026-05-06 00:17 42.67265 -81.25041 6315 ft 305 kts 40°
2026-05-06 00:17 42.68886 -81.23169 5408 ft 305 kts 40°
2026-05-06 00:18 42.70509 -81.21296 4505 ft 304 kts 40°
2026-05-06 00:18 42.72096 -81.19462 3756 ft 299 kts 40°
2026-05-06 00:18 42.73645 -81.17671 3342 ft 284 kts 40°
2026-05-06 00:18 42.75092 -81.15995 3214 ft 261 kts 40°
2026-05-06 00:19 42.76424 -81.14452 3212 ft 244 kts 40°
2026-05-06 00:19 42.77709 -81.12963 3210 ft 240 kts 40°
2026-05-06 00:19 42.78974 -81.11497 3208 ft 239 kts 40°
2026-05-06 00:19 42.80225 -81.10046 3216 ft 238 kts 40°
2026-05-06 00:20 42.81488 -81.08581 3207 ft 238 kts 40°
2026-05-06 00:20 42.82751 -81.07115 3208 ft 238 kts 40°
2026-05-06 00:20 42.84013 -81.05649 3205 ft 238 kts 40°
2026-05-06 00:20 42.85276 -81.04181 3206 ft 238 kts 40°
2026-05-06 00:21 42.86539 -81.02713 3206 ft 238 kts 40°
2026-05-06 00:21 42.87846 -81.01328 3209 ft 238 kts 31°
2026-05-06 00:21 42.89381 -81.00540 3211 ft 237 kts
2026-05-06 00:21 42.90991 -81.00705 3206 ft 236 kts 342°
2026-05-06 00:22 42.92423 -81.01782 3212 ft 236 kts 322°
2026-05-06 00:22 42.93682 -81.03221 3205 ft 236 kts 318°
2026-05-06 00:22 42.94903 -81.04716 3207 ft 236 kts 317°
2026-05-06 00:22 42.96125 -81.06216 3213 ft 236 kts 317°
2026-05-06 00:23 42.97337 -81.07692 3204 ft 236 kts 318°
2026-05-06 00:23 42.98565 -81.09178 3211 ft 236 kts 318°
2026-05-06 00:23 42.99806 -81.10700 2733 ft 240 kts 317°
2026-05-06 00:23 43.01018 -81.12172 1780 ft 223 kts 318°
2026-05-06 00:24 43.02112 -81.13476 1098 ft 189 kts 318°
2026-05-06 00:24 43.02960 -81.14502 914 ft 135 kts 317°
2026-05-06 00:24 43.03477 -81.15121 922 ft 73 kts 319°
2026-05-06 00:24 43.03795 -81.15500 916 ft 50 kts 318°
2026-05-06 00:25 43.03886 -81.15773 916 ft 21 kts 257°
2026-05-06 00:25 43.03813 -81.15825 916 ft 10 kts 140°
2026-05-06 00:25 43.03796 -81.15806 913 ft 2 kts 140°
2026-05-06 00:25 43.03791 -81.15800 913 ft 0 kts 140°
2026-05-06 00:26 43.03767 -81.15768 913 ft 17 kts 137°
2026-05-06 00:27 43.03635 -81.15607 915 ft 28 kts 138°
2026-05-06 00:27 43.03507 -81.15455 915 ft 15 kts 139°
2026-05-06 00:27 43.03407 -81.15336 916 ft 27 kts 137°
2026-05-06 00:27 43.03271 -81.15166 916 ft 26 kts 138°
2026-05-06 00:28 43.03134 -81.15004 913 ft 26 kts 139°
2026-05-06 00:28 43.03033 -81.14910 912 ft 7 kts 173°
2026-05-06 00:28 43.02951 -81.14908 911 ft 0 kts 181°